User: anonymous   Login
Location: Sawmill Trailhead
(33.5800°N, 116.4497°W)
Time: 01:49:54
(UTC-07:00)
Language:

Uosat F - Orbit

View from above orbital plane
View from above orbital plane
View from above satellite
View from above satellite

Ground track
Ground track

The orbit data is extracted from the following two-line orbital elements,

1 21575U 91050B   14304.49953287  .00000319  00000-0  11494-3 0  1586
2 21575 098.7157 283.0624 0006167 275.7017 196.4167 14.40462996223100
Epoch (UTC): 31 October 2014 11:59:19
Eccentricity: 0.0006167
inclination: 98.7157°
perigee height: 752 km
apogee height: 761 km
right ascension of ascending node: 283.0624°
argument of perigee: 275.7017°
revolutions per day: 14.40462996
mean anomaly at epoch: 196.4167°
orbit number at epoch: 22310

The dashed part of the orbit path shows where the satellite is in the earth's shadow,  

DLR